Change the Weather History Date:

Saturday, November 24, 2012

  Actual Average (KDUJ) Record (KDUJ)
Temperature  
Mean Temperature 30 °F 36 °F  
Max Temperature 32 °F 43 °F 67 °F (2014)
Min Temperature 28 °F 29 °F 9 °F (2005)
Degree Days  
Heating Degree Days 35 29  
Month to date heating degree days 592  
Since 1 July heating degree days 1335  
Cooling Degree Days 0 0  
Month to date cooling degree days 0  
Year to date cooling degree days 362  
Moisture  
Dew Point 22 °F    
Average Humidity 72    
Maximum Humidity 78    
Minimum Humidity 64    
Precipitation  
Precipitation 0.00 in 0.13 in 0.73 in (2008)
Month to date precipitation 2.95  
Sea Level Pressure  
Sea Level Pressure 29.93 in    
Wind  
Wind Speed 12 mph (West)    
Max Wind Speed 22 mph    
Max Gust Speed 30 mph    
Visibility 8 miles    
Events Snow    
T = Trace of Precipitation, MM = Missing Value Source: NWS Daily Summary

Daily Weather History Graph

Daily Weather History Graph

Search for Another Location

Airport or City:

Trip Planner

Search our weather history database for the weather conditions in past years. The results will help you decide how hot, cold, wet, or windy it might be!

Date:

Astronomy

Nov. 24, 2012 Rise Set
Actual Time 7:12 AM EST 4:48 PM EST
Civil Twilight 6:42 AM EST 5:18 PM EST
Nautical Twilight 6:08 AM EST 5:52 PM EST
Astronomical Twilight 5:35 AM EST 6:25 PM EST
Moon 2:33 PM EST (11/24) 3:25 AM EST (11/24)
Length of Visible Light 10h 36m
Length of Day
9h 36m
Waxing Gibbous, 87% of the Moon is Illuminated
Nov 24
Waxing Gibbous
Nov 28
Full
Dec 6
Last Quarter
Dec 13
New
Dec 20
First Quarter

Hourly Weather History & Observations

Time (EST) Temp. Windchill Dew Point Humidity Pressure Visibility Wind Dir Wind Speed Gust Speed Precip Events Conditions
12:54 AM 30.0 °F 20.0 °F 21.9 °F 72% 29.87 in 8.0 mi West 12.7 mph 26.5 mph 0.00 in Snow Light Snow
1:54 AM 30.0 °F 20.5 °F 21.9 °F 72% 29.88 in 10.0 mi WSW 11.5 mph 21.9 mph 0.00 in Snow Light Snow
2:54 AM 28.9 °F 20.4 °F 21.9 °F 75% 29.88 in 9.0 mi WSW 9.2 mph 18.4 mph 0.00 in Snow Light Snow
3:54 AM 28.9 °F 19.2 °F 23.0 °F 78% 29.88 in 4.0 mi WSW 11.5 mph 18.4 mph 0.00 in Snow Light Snow
4:54 AM 28.9 °F 20.4 °F 23.0 °F 78% 29.88 in 10.0 mi WSW 9.2 mph - 0.00 in   Overcast
5:54 AM 28.9 °F 19.8 °F 21.9 °F 75% 29.89 in 6.0 mi WSW 10.4 mph 20.7 mph 0.00 in Snow Light Snow
6:54 AM 28.9 °F 19.2 °F 23.0 °F 78% 29.91 in 10.0 mi WSW 11.5 mph 18.4 mph 0.00 in   Overcast
7:54 AM 30.0 °F 20.0 °F 21.9 °F 72% 29.92 in 10.0 mi West 12.7 mph 23.0 mph N/A   Overcast
8:54 AM 30.0 °F 19.1 °F 21.9 °F 72% 29.93 in 9.0 mi West 15.0 mph 20.7 mph 0.00 in Snow Light Snow
9:54 AM 30.9 °F 20.2 °F 21.9 °F 69% 29.94 in 10.0 mi West 15.0 mph 23.0 mph 0.00 in   Overcast
10:54 AM 30.9 °F 21.2 °F 21.9 °F 69% 29.94 in 7.0 mi West 12.7 mph 21.9 mph 0.00 in Snow Light Snow
11:05 AM 30.2 °F 18.9 °F 23.0 °F 75% 29.89 in 6.0 mi West 16.1 mph 25.3 mph 0.00 in Snow Light Snow
11:13 AM 30.2 °F 19.8 °F 23.0 °F 75% 29.89 in 1.8 mi West 13.8 mph 26.5 mph 0.00 in Snow Light Snow
11:20 AM 30.2 °F 20.8 °F 23.0 °F 75% 29.89 in 0.8 mi West 11.5 mph 26.5 mph 0.00 in Snow Light Snow
11:30 AM 30.2 °F 19.8 °F 23.0 °F 75% 29.89 in 2.0 mi West 13.8 mph 24.2 mph 0.00 in Snow Light Snow
11:38 AM 30.2 °F 21.3 °F 23.0 °F 75% 29.89 in 9.0 mi West 10.4 mph 17.3 mph 0.00 in   Overcast
11:54 AM 32.0 °F 22.5 °F 21.9 °F 66% 29.93 in 9.0 mi West 12.7 mph 24.2 mph 0.00 in   Overcast
12:52 PM 32.0 °F 23.6 °F 21.2 °F 64% 29.87 in 9.0 mi West 10.4 mph 26.5 mph 0.00 in Snow Light Snow
12:54 PM 32.0 °F 23.6 °F 21.9 °F 66% 29.92 in 9.0 mi West 10.4 mph 26.5 mph 0.00 in Snow Light Snow
1:02 PM 30.2 °F 18.9 °F 21.2 °F 69% 29.88 in 4.0 mi West 16.1 mph 23.0 mph 0.00 in Snow Light Snow
1:54 PM 32.0 °F 20.8 °F 21.9 °F 66% 29.92 in 7.0 mi West 17.3 mph 28.8 mph 0.00 in Snow Light Snow
2:54 PM 30.9 °F 18.1 °F 21.0 °F 67% 29.94 in 9.0 mi WNW 21.9 mph 29.9 mph 0.00 in Snow Light Snow
3:54 PM 30.0 °F 21.1 °F 21.0 °F 69% 29.95 in 10.0 mi West 10.4 mph 19.6 mph 0.00 in   Overcast
4:54 PM 30.0 °F 20.5 °F 21.0 °F 69% 29.97 in 10.0 mi West 11.5 mph 21.9 mph 0.00 in   Overcast
5:54 PM 28.9 °F 19.8 °F 21.0 °F 72% 29.99 in 9.0 mi West 10.4 mph 18.4 mph 0.00 in Snow Light Snow
6:06 PM 28.4 °F 20.4 °F 21.2 °F 74% 29.93 in 10.0 mi West 8.1 mph 18.4 mph 0.00 in   Overcast
6:54 PM 28.9 °F 19.8 °F 21.0 °F 72% 29.99 in 10.0 mi West 10.4 mph 18.4 mph 0.00 in Snow Light Snow
7:54 PM 28.0 °F 18.6 °F 21.9 °F 78% 30.00 in 8.0 mi West 10.4 mph 18.4 mph 0.00 in Snow Light Snow
8:54 PM 28.9 °F 21.1 °F 21.0 °F 72% 30.00 in 9.0 mi West 8.1 mph - 0.00 in Snow Light Snow
9:54 PM 28.9 °F 20.4 °F 21.0 °F 72% 30.01 in 10.0 mi WSW 9.2 mph - 0.00 in   Overcast
10:54 PM 28.0 °F 20.0 °F 21.0 °F 75% 30.00 in 10.0 mi West 8.1 mph 17.3 mph 0.00 in   Overcast
11:12 PM 28.4 °F 17.5 °F 21.2 °F 74% 29.95 in 10.0 mi West 13.8 mph 17.3 mph N/A   Overcast
11:28 PM 28.4 °F 21.2 °F 21.2 °F 74% 29.94 in 10.0 mi West 6.9 mph - N/A   Overcast
11:54 PM 28.0 °F 17.5 °F 21.0 °F 75% 29.99 in 10.0 mi West 12.7 mph 18.4 mph N/A   Overcast